When you browse on this site, cookies collect data to enhance your experience and personalize the content and advertising you see.
Visit our Privacy Policy to learn more. By continuing to use the site, you agree to this use of cookies and data.
  • In Hungary
  • List of Countries
  • For 7 days
  • Water Temperature
  • Satellite Maps
  • Weather Map
  • News
  • Weather Widgets
  • user-avatar
    Login

    Hourly Weather Chruslina

    Today, 26 May, Sunday

    Time Temperature Precipitation Wind Pressure Humidity
    00:00 +13°C° 0 mm 2 mps 745 mmHg 92%
    01:00 +12°C° 0 mm 2 mps 745 mmHg 92%
    02:00 +12°C° 0 mm 2 mps 745 mmHg 92%
    03:00 +12°C° 0 mm 1 mps 745 mmHg 92%
    04:00 +12°C° 0 mm 1 mps 745 mmHg 92%
    05:00 +13°C° 0 mm 2 mps 745 mmHg 87%
    06:00 +15°C° 0 mm 2 mps 745 mmHg 82%
    07:00 +17°C° 0 mm 2 mps 745 mmHg 77%
    08:00 +18°C° 0.2 mm 2 mps 745 mmHg 74%
    09:00 +19°C° 0.2 mm 3 mps 745 mmHg 71%
    10:00 +20°C° 0.2 mm 3 mps 745 mmHg 68%
    11:00 +20°C° 0.3 mm 3 mps 745 mmHg 66%
    12:00 +21°C° 0.3 mm 4 mps 745 mmHg 64%
    13:00 +22°C° 0.3 mm 4 mps 745 mmHg 61%
    14:00 +22°C° 0.1 mm 4 mps 744 mmHg 60%
    15:00 +22°C° 0.1 mm 4 mps 744 mmHg 59%
    16:00 +22°C° 0.1 mm 4 mps 744 mmHg 58%
    17:00 +21°C° 0 mm 3 mps 744 mmHg 64%
    18:00 +19°C° 0 mm 2 mps 744 mmHg 70%
    19:00 +19°C° 0 mm 1 mps 744 mmHg 76%
    20:00 +18°C° 0 mm 1 mps 744 mmHg 78%
    21:00 +16°C° 0 mm 1 mps 744 mmHg 81%
    22:00 +15°C° 0 mm 1 mps 744 mmHg 84%
    23:00 +14°C° 0 mm 1 mps 744 mmHg 86%

    Tomorrow, 27 May, Monday

    Time Temperature Precipitation Wind Pressure Humidity
    00:00 +14°C° 0 mm 2 mps 744 mmHg 87%
    01:00 +14°C° 0 mm 2 mps 744 mmHg 89%
    02:00 +14°C° 0 mm 2 mps 744 mmHg 91%
    03:00 +13°C° 0 mm 3 mps 744 mmHg 92%
    04:00 +13°C° 0 mm 3 mps 744 mmHg 94%
    05:00 +14°C° 0 mm 3 mps 744 mmHg 89%
    06:00 +17°C° 0 mm 3 mps 744 mmHg 84%
    07:00 +19°C° 0 mm 4 mps 744 mmHg 79%
    08:00 +21°C° 0 mm 4 mps 744 mmHg 73%
    09:00 +22°C° 0 mm 4 mps 744 mmHg 67%
    10:00 +25°C° 0 mm 5 mps 743 mmHg 61%
    11:00 +25°C° 0.7 mm 5 mps 743 mmHg 62%
    12:00 +25°C° 0.7 mm 5 mps 743 mmHg 62%
    13:00 +25°C° 0.7 mm 5 mps 743 mmHg 63%
    14:00 +25°C° 0.3 mm 5 mps 743 mmHg 64%
    15:00 +25°C° 0.3 mm 4 mps 743 mmHg 64%
    16:00 +25°C° 0.3 mm 4 mps 742 mmHg 65%
    17:00 +24°C° 0.1 mm 3 mps 742 mmHg 70%
    18:00 +22°C° 0.1 mm 3 mps 742 mmHg 76%
    19:00 +20°C° 0.1 mm 2 mps 742 mmHg 81%
    20:00 +20°C° 0 mm 2 mps 742 mmHg 84%
    21:00 +19°C° 0 mm 2 mps 742 mmHg 86%
    22:00 +18°C° 0 mm 3 mps 742 mmHg 89%
    23:00 +18°C° 0 mm 3 mps 742 mmHg 90%

    Day after tomorrow, 28 May, Tuesday

    Time Temperature Precipitation Wind Pressure Humidity
    00:00 +17°C° 0 mm 3 mps 742 mmHg 92%
    01:00 +17°C° 0 mm 3 mps 741 mmHg 93%
    02:00 +17°C° 0 mm 3 mps 741 mmHg 92%
    03:00 +17°C° 0 mm 4 mps 740 mmHg 90%
    04:00 +17°C° 0 mm 4 mps 740 mmHg 89%
    05:00 +19°C° 0 mm 5 mps 740 mmHg 86%
    06:00 +20°C° 0 mm 6 mps 740 mmHg 83%
    07:00 +21°C° 0 mm 7 mps 739 mmHg 80%
    08:00 +22°C° 0 mm 7 mps 739 mmHg 74%
    09:00 +23°C° 0 mm 7 mps 739 mmHg 67%
    10:00 +26°C° 0 mm 6 mps 739 mmHg 61%
    11:00 +26°C° 0 mm 6 mps 739 mmHg 59%
    12:00 +26°C° 0 mm 6 mps 739 mmHg 57%
    13:00 +27°C° 0 mm 6 mps 738 mmHg 56%
    14:00 +25°C° 0.4 mm 5 mps 738 mmHg 62%
    15:00 +23°C° 0.4 mm 5 mps 738 mmHg 68%
    16:00 +22°C° 0.4 mm 4 mps 738 mmHg 74%
    17:00 +21°C° 0 mm 4 mps 737 mmHg 78%
    18:00 +21°C° 0 mm 4 mps 737 mmHg 81%
    19:00 +20°C° 0 mm 4 mps 737 mmHg 85%
    20:00 +19°C° 0 mm 4 mps 737 mmHg 86%
    21:00 +19°C° 0 mm 4 mps 737 mmHg 86%
    22:00 +19°C° 0 mm 4 mps 737 mmHg 87%
    23:00 +18°C° 0 mm 4 mps 737 mmHg 89%

    29 May, Wednesday

    Time Temperature Precipitation Wind Pressure Humidity
    00:00 +17°C° 0 mm 3 mps 737 mmHg 92%
    01:00 +16°C° 0 mm 2 mps 738 mmHg 95%
    02:00 +16°C° 0 mm 3 mps 738 mmHg 93%
    03:00 +14°C° 0 mm 3 mps 738 mmHg 91%
    04:00 +14°C° 0 mm 3 mps 739 mmHg 89%
    05:00 +14°C° 0 mm 3 mps 739 mmHg 86%
    06:00 +14°C° 0 mm 3 mps 740 mmHg 84%
    07:00 +16°C° 0 mm 3 mps 740 mmHg 81%
    08:00 +16°C° 0 mm 3 mps 740 mmHg 80%
    09:00 +16°C° 0 mm 3 mps 741 mmHg 79%
    10:00 +16°C° 0 mm 3 mps 741 mmHg 78%
    11:00 +17°C° 0 mm 3 mps 741 mmHg 76%
    12:00 +17°C° 0 mm 3 mps 741 mmHg 74%
    13:00 +18°C° 0 mm 3 mps 742 mmHg 72%
    14:00 +18°C° 0 mm 3 mps 742 mmHg 74%
    15:00 +18°C° 0 mm 3 mps 742 mmHg 75%
    16:00 +17°C° 0 mm 3 mps 742 mmHg 76%
    17:00 +17°C° 0.2 mm 3 mps 742 mmHg 80%
    18:00 +16°C° 0.2 mm 3 mps 742 mmHg 85%
    19:00 +14°C° 0.2 mm 4 mps 742 mmHg 89%
    20:00 +13°C° 0.8 mm 4 mps 743 mmHg 91%
    21:00 +13°C° 0.8 mm 4 mps 743 mmHg 92%
    22:00 +13°C° 0.8 mm 4 mps 744 mmHg 94%
    23:00 +13°C° 0.8 mm 4 mps 744 mmHg 94%

    30 May, Thursday

    Time Temperature Precipitation Wind Pressure Humidity
    00:00 +12°C° 0.8 mm 4 mps 744 mmHg 95%
    01:00 +12°C° 0.8 mm 4 mps 745 mmHg 95%
    02:00 +12°C° 0.2 mm 4 mps 745 mmHg 95%
    03:00 +12°C° 0.2 mm 4 mps 745 mmHg 95%
    04:00 +11°C° 0.2 mm 3 mps 746 mmHg 96%
    05:00 +12°C° 0 mm 4 mps 746 mmHg 93%
    06:00 +13°C° 0 mm 4 mps 747 mmHg 90%
    07:00 +14°C° 0 mm 4 mps 747 mmHg 87%
    08:00 +14°C° 0.3 mm 5 mps 748 mmHg 87%
    09:00 +14°C° 0.3 mm 6 mps 748 mmHg 86%
    10:00 +14°C° 0.3 mm 7 mps 749 mmHg 86%
    11:00 +14°C° 0.1 mm 6 mps 749 mmHg 83%
    12:00 +14°C° 0.1 mm 5 mps 749 mmHg 80%
    13:00 +14°C° 0.1 mm 5 mps 750 mmHg 77%
    14:00 +15°C° 0 mm 4 mps 750 mmHg 71%
    15:00 +17°C° 0 mm 4 mps 750 mmHg 66%
    16:00 +18°C° 0 mm 4 mps 750 mmHg 60%
    17:00 +16°C° 0 mm 3 mps 750 mmHg 65%
    18:00 +14°C° 0 mm 3 mps 750 mmHg 70%
    19:00 +14°C° 0 mm 2 mps 751 mmHg 74%
    20:00 +13°C° 0 mm 2 mps 751 mmHg 75%
    21:00 +10°C° 0 mm 2 mps 751 mmHg 76%
    22:00 +10°C° 0 mm 1 mps 752 mmHg 77%
    23:00 +10°C° 0 mm 1 mps 752 mmHg 78%

    31 May, Friday

    Time Temperature Precipitation Wind Pressure Humidity
    00:00 +9°C° 0 mm 1 mps 752 mmHg 79%
    01:00 +9°C° 0 mm 1 mps 752 mmHg 80%
    02:00 +9°C° 0 mm 1 mps 751 mmHg 80%
    03:00 +8°C° 0 mm 2 mps 751 mmHg 80%
    04:00 +8°C° 0 mm 2 mps 751 mmHg 80%
    05:00 +10°C° 0 mm 3 mps 751 mmHg 77%
    06:00 +12°C° 0 mm 3 mps 751 mmHg 73%
    07:00 +13°C° 0 mm 4 mps 751 mmHg 70%
    08:00 +15°C° 0 mm 4 mps 751 mmHg 66%
    09:00 +18°C° 0 mm 4 mps 750 mmHg 62%
    10:00 +20°C° 0 mm 5 mps 750 mmHg 57%
    11:00 +20°C° 0.2 mm 5 mps 750 mmHg 58%
    12:00 +21°C° 0.2 mm 5 mps 750 mmHg 59%
    13:00 +21°C° 0.2 mm 5 mps 749 mmHg 60%
    14:00 +20°C° 1 mm 5 mps 750 mmHg 67%
    15:00 +19°C° 1 mm 5 mps 750 mmHg 74%
    16:00 +19°C° 1 mm 5 mps 750 mmHg 80%
    17:00 +16°C° 0.3 mm 5 mps 750 mmHg 84%
    18:00 +15°C° 0.3 mm 5 mps 751 mmHg 88%
    19:00 +13°C° 0.3 mm 5 mps 752 mmHg 91%
    20:00 +10°C° 0 mm 5 mps 752 mmHg 92%
    21:00 +10°C° 0 mm 4 mps 753 mmHg 92%
    22:00 +8°C° 0 mm 3 mps 754 mmHg 92%
    23:00 +7°C° 0 mm 2 mps 754 mmHg 91%
    Show more